Home   Weather   Lexington-Fayette   Past weeks

Flag for USA Past Weather in Lexington-Fayette, Kentucky, USA — Yesterday and Last 2 Weeks

Now
56 °F

Overcast.


Feels Like: 54 °F
Forecast: 50 / 66 °F
Wind: 7 mph from East

Location: Blue Grass Airport

Current Time: Apr 24, 2017 at 1:51:45 am

Latest Report: Apr 24, 2017 at 12:54 am


Visibility: 10 mi

Pressure: 29.92 "Hg

Humidity: 70%

Dew Point: 46 °F

Location of Lexington-FayetteLocation

Past Weather in Lexington-Fayette — Graph

°F

Lexington-Fayette Temperature Yesterday

Maximum temperature yesterday: 57 °F (at 6:54 pm)
Minimum temperature yesterday: 43 °F (at 5:54 am)
Average temperature yesterday: 51 °F

High & Low Weather Summary for the Past Weeks

 TemperatureHumidityPressure
High82 °F (Apr 15, 2:54 pm)94% (Apr 19, 8:54 am)30.37 "Hg (Apr 19, 8:54 am)
Low43 °F (Apr 23, 5:54 am)17% (Apr 13, 3:54 pm)29.88 "Hg (Apr 23, 9:54 pm)
Average64 °F60%30.10 "Hg
* Reported Apr 8 11:54 pm — Apr 23 11:54 pm, Lexington-Fayette, Weather by CustomWeather, © 2017

Note: Actual official high and low records may vary slightly from our data, if they occured in-between our weather recording intervals... More about our weather records

Advertising

Lexington-Fayette Weather History for the Previous 24 Hours

Scroll right to see more
 ConditionsComfort  
Time TempWeatherWind HumidityBarometerVisibility
11:54 pm
Sun, Apr 23
56 °FMostly cloudy.12 mph70%29.92 "Hg10 mi
10:54 pm57 °FPassing clouds.14 mph67%29.92 "Hg10 mi
9:54 pm56 °FClear.22 mph70%29.88 "Hg10 mi
8:54 pm56 °FClear.17 mph67%29.90 "Hg10 mi
7:54 pm56 °FPassing clouds.18 mph70%29.90 "Hg10 mi
6:54 pm57 °FPartly sunny.15 mph67%29.93 "Hg10 mi
6:28 pm56 °FPartly sunny.15 mph70%29.93 "Hg10 mi
5:54 pm56 °FOvercast.13 mph72%29.93 "Hg10 mi
5:25 pm56 °FMostly cloudy.10 mph72%29.94 "Hg10 mi
4:54 pm55 °FPartly sunny.14 mph77%29.93 "Hg10 mi
4:10 pm54 °FMostly cloudy.12 mph80%29.93 "Hg10 mi
3:54 pm53 °FCloudy.13 mph83%29.94 "Hg10 mi
2:54 pm53 °FLight rain. Mostly cloudy.18 mph74%29.95 "Hg5 mi
1:54 pm54 °FMostly cloudy.15 mph69%29.95 "Hg10 mi
12:54 pm52 °FOvercast.16 mph69%29.94 "Hg10 mi
12:26 pm51 °FOvercast.20 mph69%29.95 "Hg10 mi
11:54 am51 °FOvercast.22 mph69%29.92 "Hg10 mi
10:54 am49 °FMostly cloudy.15 mph71%29.96 "Hg10 mi
9:54 am48 °FMostly cloudy.13 mph68%29.96 "Hg10 mi
8:54 am46 °FOvercast.16 mph71%29.97 "Hg10 mi
7:54 am45 °FPartly sunny.16 mph74%29.95 "Hg10 mi
6:54 am44 °FSunny.16 mph76%29.94 "Hg10 mi
5:54 am43 °FClear.13 mph82%29.94 "Hg10 mi
4:54 am45 °FOvercast.9 mph76%29.98 "Hg10 mi
3:54 am47 °FOvercast.13 mph74%29.97 "Hg10 mi
2:54 am47 °FOvercast.15 mph74%29.98 "Hg10 mi
1:54 am46 °FPassing clouds.15 mph77%29.99 "Hg10 mi
Weather by CustomWeather, © 2017

See weather overviewHow to use our weather pages